Home > Weather > Passau > Past weeks

Flag for Germany Past Weather in Passau, Bavaria, Germany — Yesterday and Last 2 Weeks

Now
60 °F

Cool.


Feels Like: 60 °F
Forecast: 52 / 77 °F
Wind: 2 mph from North

Location: Rohrbach

Current Time: Aug 30, 2016 at 7:19:52 AM

Latest Report: Aug 30, 2016 at 6:00 AM


Visibility: N/A

Pressure: 30.17 "Hg

Humidity: 87%

Dew Point: 56 °F

Location of PassauLocation

Past Weather in Passau — Graph

°F

Passau Temperature Yesterday

Maximum temperature yesterday: 68 °F (at 12:00 PM)
Minimum temperature yesterday: 60 °F (at 11:00 PM)
Average temperature yesterday: 65 °F

High & Low Weather Summary for the Past Weeks

 TemperatureHumidityPressure
High83 °F (Aug 27, 3:00 PM)99% (Aug 22, 6:00 AM)30.43 "Hg (Aug 22, 6:00 AM)
Low48 °F (Aug 23, 7:00 AM)38% (Aug 25, 6:00 PM)29.76 "Hg (Aug 18, 4:00 PM)
Average65 °F74%30.07 "Hg
* Reported Aug 15 6:00 AM — Aug 30 6:00 AM, Passau, Weather by CustomWeather, © 2016

Note: Actual official high and low records may vary slightly from our data, if they occured in-between our weather recording intervals... More about our weather records

Advertising

Passau Weather History for the Previous 24 Hours

Scroll right to see more
 ConditionsComfort  
Time TempWeatherWind HumidityBarometerVisibility
6:00 AM
Tue, Aug 30
60 °FCool.2 mph87%30.17 "HgN/A
5:00 AM60 °FCool.3 mph90%30.17 "HgN/A
4:00 AM57 °FCool.1 mph99%30.18 "HgN/A
3:00 AMN/APassing clouds.12 mphN/AN/A3 mi
2:00 AM57 °FCool.1 mph99%30.19 "HgN/A
1:00 AM58 °FCool.1 mph99%30.19 "HgN/A
12:00 AM60 °FCool.1 mph98%30.17 "HgN/A
11:00 PM
Mon, Aug 29
60 °FCool.No wind96%30.16 "HgN/A
10:00 PM61 °FCool.No wind95%30.15 "HgN/A
9:00 PM61 °FCool.1 mph93%30.13 "HgN/A
8:00 PM64 °FMild.1 mph88%30.11 "HgN/A
7:00 PM66 °FMild.1 mph84%30.08 "HgN/A
5:00 PM65 °FMild.2 mph86%30.09 "HgN/A
4:00 PM65 °FMild.1 mph89%30.08 "HgN/A
3:00 PM64 °FMild.1 mph93%30.08 "HgN/A
2:00 PM66 °FMild.1 mph89%30.10 "HgN/A
1:00 PM66 °FMild.2 mph84%30.10 "HgN/A
12:00 PM68 °FMild.1 mph80%30.07 "HgN/A
11:00 AM64 °FMild.1 mph91%30.09 "HgN/A
10:00 AM62 °FFog.1 mph96%30.09 "HgN/A
9:00 AM62 °FFog.2 mph91%30.09 "HgN/A
8:00 AM64 °FFog.6 mph83%30.04 "HgN/A
7:00 AM67 °FMild.5 mph86%30.03 "HgN/A
Weather by CustomWeather, © 2016

See weather overviewHow to use our weather pages